Starlink 32251

operational
NORAD ID: 60940 Int'l Des: 2024-155 Owner: SPXS Country: US Constellation: starlink
LEOCIRCULAR

关于 Starlink 32251

正在加载描述...

实时位置

正在加载3D地球...

即将过境

高度历史

Altitude vs Time

uPlot chart will show altitude changes over time

两行轨道根数

1 60940U 24155S 25259.58652357 -.00000875 00000-0 -17420-4 0 9990
2 60940 53.1588 218.4490 0001267 85.1845 274.9301 15.30190690 59684
Epoch: Sep 16, 2025 • Age: 16 hours

当前状态

高度 476.1 km
速度 7.63 km/s
星下点 27.67°N, 153.37°E
发射日期 Aug 31, 2024
运行时间 1 years
类型 internet

技术详情

分类 Payload
质量 730.00 kg
干质量 700.00 kg
总质量 730.00 kg
长度 0.30 m
直径 4.10 m
跨度 29.00 m
形状 Box + pan
制造商 SPXS
平台类型 Starlink V2M
阶段状态 In Orbit
所有者/国家 SPXS/US

大型星座

Loading constellations...